Radiation Dose at Monitoring Post of Fukushima Daini Nuclear Power Station
Date,Time,MP-1(microSv/h),MP-2(microSv/h),MP-3(microSv/h),MP-4(microSv/h),MP-5(microSv/h),MP-6(microSv/h),MP-7(microSv/h),Wind Direction,Wind Velocity(m/s),Rain
2016/08/30,00:00,0.384,0.231,0.401,0.365,0.356,0.187,0.158,northeast,11.5,No
2016/08/30,00:10,0.388,0.228,0.398,0.368,0.352,0.187,0.156,northeast,10.4,No
2016/08/30,00:20,0.385,0.232,0.398,0.366,0.359,0.186,0.158,north-northeast,11.3,No
2016/08/30,00:30,0.383,0.232,0.402,0.363,0.356,0.187,0.157,north-northeast,11.1,No
2016/08/30,00:40,0.387,0.231,0.401,0.365,0.354,0.187,0.157,northeast,11.8,No
2016/08/30,00:50,0.389,0.231,0.397,0.367,0.356,0.188,0.156,northeast,11.5,Yes
2016/08/30,01:00,0.385,0.232,0.401,0.365,0.360,0.186,0.158,northeast,11.5,Yes
2016/08/30,01:10,0.384,0.231,0.401,0.365,0.357,0.188,0.157,northeast,12.2,Yes
2016/08/30,01:20,0.390,0.231,0.398,0.368,0.354,0.186,0.155,northeast,11.5,Yes
2016/08/30,01:30,0.386,0.232,0.397,0.366,0.359,0.186,0.157,northeast,11.8,Yes
2016/08/30,01:40,0.383,0.231,0.402,0.365,0.356,0.187,0.158,northeast,13.5,Yes
2016/08/30,01:50,0.387,0.230,0.401,0.366,0.353,0.188,0.157,northeast,13.0,Yes
2016/08/30,02:00,0.388,0.232,0.397,0.367,0.357,0.187,0.156,northeast,14.4,No
2016/08/30,02:10,0.384,0.231,0.399,0.364,0.358,0.186,0.158,northeast,12.6,No
2016/08/30,02:20,0.386,0.231,0.401,0.365,0.355,0.187,0.158,northeast,14.3,Yes
2016/08/30,02:30,0.389,0.231,0.399,0.367,0.356,0.187,0.156,northeast,12.6,Yes
2016/08/30,02:40,0.385,0.232,0.396,0.367,0.358,0.187,0.157,northeast,13.4,Yes
2016/08/30,02:50,0.384,0.230,0.400,0.363,0.357,0.186,0.158,northeast,13.0,Yes
2016/08/30,03:00,0.389,0.231,0.401,0.367,0.353,0.187,0.157,northeast,12.4,No
2016/08/30,03:10,0.386,0.232,0.396,0.367,0.358,0.187,0.157,north-northeast,11.8,No
2016/08/30,03:20,0.384,0.231,0.398,0.365,0.358,0.187,0.158,northeast,11.1,No
2016/08/30,03:30,0.387,0.231,0.402,0.363,0.354,0.187,0.158,north-northeast,10.7,No
2016/08/30,03:40,0.390,0.232,0.400,0.368,0.356,0.187,0.157,north-northeast,10.2,No
2016/08/30,03:50,0.386,0.232,0.395,0.366,0.359,0.187,0.158,northeast,9.8,Yes
2016/08/30,04:00,0.384,0.232,0.399,0.365,0.356,0.187,0.158,north-northeast,10.0,No
2016/08/30,04:10,0.387,0.231,0.402,0.363,0.354,0.187,0.157,north-northeast,9.7,Yes
2016/08/30,04:20,0.387,0.231,0.399,0.369,0.358,0.187,0.155,north-northeast,11.1,Yes
2016/08/30,04:30,0.385,0.232,0.397,0.367,0.358,0.186,0.158,northeast,11.5,No
2016/08/30,04:40,0.386,0.230,0.402,0.364,0.355,0.187,0.158,north-northeast,12.1,Yes
2016/08/30,04:50,0.388,0.233,0.402,0.366,0.353,0.188,0.157,north-northeast,12.0,Yes
2016/08/30,05:00,0.388,0.233,0.398,0.370,0.358,0.187,0.157,north-northeast,11.8,Yes
2016/08/30,05:10,0.384,0.231,0.397,0.365,0.359,0.186,0.158,north-northeast,12.6,No
2016/08/30,05:20,0.385,0.231,0.402,0.363,0.354,0.187,0.158,north-northeast,12.3,Yes
2016/08/30,05:30,0.390,0.232,0.403,0.368,0.356,0.187,0.157,north-northeast,12.4,No
2016/08/30,05:40,0.385,0.232,0.399,0.368,0.359,0.187,0.158,north-northeast,14.0,No
2016/08/30,05:50,0.384,0.230,0.398,0.365,0.356,0.188,0.158,north-northeast,11.8,No
2016/08/30,06:00,0.386,0.233,0.401,0.364,0.355,0.187,0.157,north-northeast,13.8,No
2016/08/30,06:10,0.389,0.233,0.401,0.368,0.357,0.188,0.157,north,12.5,No
2016/08/30,06:20,0.386,0.232,0.398,0.365,0.359,0.188,0.159,north,14.1,No
2016/08/30,06:30,0.383,0.232,0.399,0.364,0.356,0.187,0.158,north,12.9,No
2016/08/30,06:40,0.386,0.233,0.405,0.366,0.354,0.188,0.157,north-northeast,14.9,Yes
2016/08/30,06:50,0.389,0.232,0.402,0.368,0.359,0.189,0.157,north-northeast,15.6,Yes
2016/08/30,07:00,0.387,0.232,0.398,0.367,0.358,0.186,0.159,north-northeast,16.2,Yes
2016/08/30,07:10,0.385,0.231,0.399,0.364,0.355,0.188,0.159,north-northeast,16.6,Yes
2016/08/30,07:20,0.387,0.232,0.403,0.367,0.356,0.188,0.158,north,14.8,Yes
2016/08/30,07:30,0.389,0.233,0.401,0.368,0.359,0.187,0.157,north,16.1,No
2016/08/30,07:40,0.388,0.231,0.399,0.366,0.358,0.187,0.159,north,16.8,No
2016/08/30,07:50,0.385,0.232,0.398,0.364,0.355,0.187,0.160,north,16.6,No
2016/08/30,08:00,0.388,0.233,0.403,0.367,0.354,0.187,0.159,north,16.1,Yes
2016/08/30,08:10,0.392,0.233,0.403,0.369,0.359,0.188,0.157,north,17.9,Yes
2016/08/30,08:20,0.388,0.232,0.399,0.367,0.357,0.187,0.160,north,17.5,Yes
2016/08/30,08:30,0.381,0.233,0.397,0.359,0.352,0.186,0.157,north-northeast,17.7,Yes
2016/08/30,08:40,0.387,0.234,0.401,0.365,0.355,0.187,0.156,north-northeast,17.4,Yes
2016/08/30,08:50,0.386,0.232,0.399,0.365,0.358,0.187,0.157,north-northeast,19.3,Yes
2016/08/30,09:00,0.383,0.233,0.396,0.362,0.354,0.187,0.158,north-northeast,19.9,No
2016/08/30,09:10,0.385,0.234,0.401,0.364,0.354,0.187,0.158,north-northeast,19.0,Yes
2016/08/30,09:20,0.386,0.233,0.399,0.368,0.359,0.188,0.155,north-northeast,19.1,Yes
2016/08/30,09:30,0.387,0.231,0.398,0.365,0.356,0.188,0.159,north,17.1,Yes
2016/08/30,09:40,0.382,0.234,0.398,0.363,0.355,0.188,0.158,north-northeast,17.4,Yes
2016/08/30,09:50,0.384,0.232,0.397,0.364,0.357,0.188,0.157,north-northeast,21.8,Yes
2016/08/30,10:00,0.382,0.232,0.393,0.359,0.357,0.189,0.159,northeast,15.7,Yes
2016/08/30,10:10,0.379,0.235,0.390,0.355,0.354,0.188,0.160,northeast,14.8,Yes
2016/08/30,10:20,0.381,0.233,0.393,0.359,0.357,0.189,0.159,east-northeast,12.1,Yes
2016/08/30,10:30,0.376,0.233,0.389,0.353,0.357,0.187,0.160,northeast,16.8,Yes
2016/08/30,10:40,0.375,0.234,0.386,0.350,0.353,0.186,0.160,north-northeast,12.4,Yes
2016/08/30,10:50,0.378,0.234,0.393,0.355,0.360,0.187,0.161,north-northeast,12.0,Yes
2016/08/30,11:00,0.375,0.235,0.390,0.354,0.356,0.188,0.161,north-northeast,14.9,Yes
2016/08/30,11:10,0.376,0.236,0.389,0.353,0.355,0.188,0.160,north-northeast,13.9,Yes
2016/08/30,11:20,0.377,0.235,0.392,0.356,0.360,0.188,0.160,north,17.7,Yes
2016/08/30,11:30,0.376,0.237,0.390,0.355,0.357,0.189,0.162,north-northeast,15.4,Yes
2016/08/30,11:40,0.377,0.235,0.392,0.358,0.358,0.188,0.160,north,15.2,Yes
2016/08/30,11:50,0.376,0.236,0.392,0.356,0.359,0.189,0.159,north,15.7,Yes
2016/08/30,12:00,0.373,0.236,0.389,0.354,0.356,0.187,0.161,north,14.5,Yes
2016/08/30,12:10,0.377,0.234,0.394,0.359,0.360,0.188,0.159,north,18.4,Yes
2016/08/30,12:20,0.375,0.236,0.390,0.358,0.358,0.187,0.161,north,12.3,Yes
2016/08/30,12:30,0.375,0.234,0.389,0.353,0.356,0.185,0.161,north,18.5,Yes
2016/08/30,12:40,0.376,0.233,0.389,0.356,0.358,0.185,0.159,north,17.3,Yes
2016/08/30,12:50,0.371,0.234,0.385,0.353,0.356,0.185,0.160,north,15.6,Yes
2016/08/30,13:00,0.374,0.231,0.385,0.349,0.353,0.183,0.158,north,18.6,Yes
2016/08/30,13:10,0.372,0.232,0.386,0.352,0.355,0.183,0.158,north-northwest,16.4,Yes
2016/08/30,13:20,0.368,0.233,0.382,0.349,0.352,0.182,0.157,north-northwest,18.5,Yes
2016/08/30,13:30,0.371,0.231,0.386,0.349,0.353,0.181,0.157,north,19.1,Yes
2016/08/30,13:40,0.371,0.232,0.385,0.354,0.354,0.182,0.159,north-northwest,19.6,Yes
2016/08/30,13:50,0.372,0.231,0.383,0.353,0.353,0.183,0.158,north,19.9,Yes
2016/08/30,14:00,0.374,0.231,0.387,0.355,0.357,0.182,0.157,north,15.5,Yes
2016/08/30,14:10,0.372,0.232,0.386,0.356,0.355,0.182,0.158,north-northwest,15.1,Yes
2016/08/30,14:20,0.376,0.231,0.388,0.355,0.356,0.183,0.157,north-northwest,15.1,Yes
2016/08/30,14:30,0.376,0.232,0.392,0.360,0.359,0.181,0.157,north-northwest,14.3,No
2016/08/30,14:40,0.374,0.232,0.391,0.361,0.354,0.182,0.158,northwest,14.9,No
2016/08/30,14:50,0.379,0.230,0.390,0.358,0.356,0.181,0.157,northwest,13.7,No
2016/08/30,15:00,0.379,0.230,0.395,0.361,0.357,0.180,0.154,northwest,12.6,No
2016/08/30,15:10,0.376,0.232,0.392,0.361,0.355,0.182,0.157,northwest,12.4,No
2016/08/30,15:20,0.375,0.230,0.389,0.359,0.353,0.182,0.156,northwest,12.8,No
2016/08/30,15:30,0.379,0.230,0.391,0.359,0.352,0.181,0.155,northwest,11.6,No
2016/08/30,15:40,0.382,0.229,0.396,0.363,0.353,0.182,0.154,northwest,11.3,No
2016/08/30,15:50,0.380,0.228,0.395,0.361,0.354,0.181,0.155,west-northwest,11.0,No
2016/08/30,16:00,0.378,0.232,0.391,0.359,0.354,0.182,0.156,west-northwest,13.5,No
2016/08/30,16:10,0.377,0.231,0.392,0.365,0.354,0.183,0.156,west,13.3,No
2016/08/30,16:20,0.383,0.230,0.399,0.365,0.354,0.183,0.155,west,13.6,No
2016/08/30,16:30,0.384,0.229,0.397,0.362,0.353,0.182,0.156,west,10.1,No
2016/08/30,16:40,0.380,0.231,0.394,0.365,0.355,0.184,0.156,west-northwest,10.2,No
2016/08/30,16:50,0.379,0.232,0.398,0.366,0.355,0.183,0.156,west,9.8,No
2016/08/30,17:00,0.385,0.231,0.399,0.364,0.354,0.184,0.156,west,6.6,No
2016/08/30,17:10,0.384,0.230,0.397,0.365,0.355,0.185,0.156,west-southwest,7.7,No
2016/08/30,17:20,0.383,0.231,0.396,0.366,0.354,0.184,0.156,west-southwest,12.1,No
2016/08/30,17:30,0.380,0.232,0.401,0.364,0.360,0.186,0.156,southwest,11.6,No
2016/08/30,17:40,0.383,0.230,0.400,0.364,0.361,0.185,0.157,southwest,8.1,No
2016/08/30,17:50,0.386,0.229,0.398,0.367,0.358,0.186,0.158,southwest,7.8,No
2016/08/30,18:00,0.385,0.231,0.397,0.367,0.357,0.186,0.157,south-southwest,7.0,No
2016/08/30,18:10,0.382,0.233,0.401,0.363,0.361,0.185,0.156,south-southwest,6.6,No
2016/08/30,18:20,0.384,0.230,0.400,0.365,0.359,0.186,0.157,south-southwest,5.1,No
2016/08/30,18:30,0.387,0.231,0.396,0.369,0.356,0.186,0.158,west-southwest,7.5,No
2016/08/30,18:40,0.384,0.233,0.401,0.365,0.358,0.186,0.157,southwest,11.1,No
2016/08/30,18:50,0.380,0.231,0.403,0.364,0.361,0.186,0.157,southwest,11.0,No
2016/08/30,19:00,0.386,0.231,0.399,0.368,0.359,0.187,0.158,west-southwest,7.5,No
2016/08/30,19:10,0.385,0.232,0.398,0.369,0.355,0.187,0.157,southwest,8.5,No
2016/08/30,19:20,0.383,0.232,0.402,0.365,0.359,0.186,0.157,west-southwest,7.0,No
2016/08/30,19:30,0.383,0.231,0.402,0.366,0.359,0.187,0.158,west-southwest,8.1,No
2016/08/30,19:40,0.388,0.230,0.398,0.369,0.356,0.187,0.158,southwest,5.8,No
2016/08/30,19:50,0.383,0.233,0.399,0.367,0.355,0.187,0.158,south-southwest,4.5,No
2016/08/30,20:00,0.382,0.230,0.404,0.365,0.360,0.186,0.157,south-southwest,5.2,No
2016/08/30,20:10,0.387,0.231,0.401,0.369,0.358,0.188,0.159,south-southwest,5.3,No
2016/08/30,20:20,0.386,0.232,0.399,0.368,0.355,0.187,0.160,south-southwest,6.5,Yes
2016/08/30,20:30,0.383,0.231,0.403,0.365,0.359,0.187,0.156,south-southwest,6.4,No
2016/08/30,20:40,0.385,0.232,0.401,0.370,0.360,0.187,0.159,southwest,2.8,No
2016/08/30,20:50,0.388,0.233,0.398,0.369,0.356,0.188,0.159,west-southwest,2.6,Yes
2016/08/30,21:00,0.383,0.231,0.403,0.366,0.359,0.188,0.157,west,3.9,Yes
2016/08/30,21:10,0.386,0.231,0.403,0.367,0.359,0.188,0.160,west,4.4,Yes
2016/08/30,21:20,0.387,0.233,0.400,0.370,0.356,0.188,0.159,west,7.3,No
2016/08/30,21:30,0.383,0.233,0.400,0.366,0.358,0.187,0.158,west-southwest,5.8,No
2016/08/30,21:40,0.387,0.232,0.403,0.368,0.362,0.188,0.159,west,5.1,No
2016/08/30,21:50,0.386,0.232,0.400,0.370,0.358,0.189,0.158,west-southwest,6.6,No
2016/08/30,22:00,0.384,0.231,0.402,0.366,0.357,0.187,0.158,west,5.7,No
2016/08/30,22:10,0.387,0.232,0.405,0.370,0.361,0.188,0.160,west,3.7,No
2016/08/30,22:20,0.386,0.234,0.399,0.369,0.358,0.188,0.157,west-southwest,4.9,No
2016/08/30,22:30,0.385,0.231,0.402,0.366,0.357,0.188,0.159,south-southwest,1.9,No
2016/08/30,22:40,0.387,0.232,0.404,0.371,0.361,0.189,0.159,south,3.5,No
2016/08/30,22:50,0.387,0.232,0.402,0.368,0.358,0.187,0.158,south,5.0,No
2016/08/30,23:00,0.384,0.231,0.404,0.368,0.358,0.188,0.158,south,7.0,No
2016/08/30,23:10,0.388,0.233,0.402,0.371,0.359,0.189,0.159,south,7.4,No
2016/08/30,23:20,0.386,0.233,0.399,0.368,0.360,0.188,0.158,south,5.8,No
2016/08/30,23:30,0.385,0.231,0.401,0.367,0.356,0.188,0.159,south-southwest,4.2,No
2016/08/30,23:40,0.388,0.232,0.404,0.371,0.361,0.188,0.159,southwest,4.1,No
2016/08/30,23:50,0.386,0.232,0.400,0.368,0.358,0.188,0.158,southwest,3.3,No
